Time,TemperatureF,DewpointF,PressureIn,WindDirection,WindDirectionDegrees,WindSpeedMPH,WindSpeedGustMPH,Humidity,HourlyPrecipIn,Conditions,Clouds,dailyrainin,SoftwareType,DateUTC
2013-02-08 00:01:00,18.0,18.0,-100.00,ENE,60,4.0,11.0,98,-99.99,,,-99.99,,2013-02-08 06:01:00,
2013-02-08 00:11:00,18.0,18.0,-100.00,ENE,60,4.0,11.0,98,-99.99,,,-99.99,,2013-02-08 06:11:00,
2013-02-08 00:32:00,17.0,16.0,-100.00,NE,50,1.0,6.0,98,-99.99,,,-99.99,,2013-02-08 06:32:00,
2013-02-08 00:42:00,17.0,16.0,-100.00,NE,50,1.0,6.0,98,-99.99,,,-99.99,,2013-02-08 06:42:00,
2013-02-08 00:52:00,17.0,16.0,-100.00,NE,50,1.0,6.0,98,-99.99,,,-99.99,,2013-02-08 06:52:00,
2013-02-08 01:01:00,17.0,16.0,-100.00,NE,50,1.0,6.0,98,-99.99,,,-99.99,,2013-02-08 07:01:00,
2013-02-08 01:32:00,15.0,15.0,-100.00,NE,40,2.0,6.0,98,-99.99,,,-99.99,,2013-02-08 07:32:00,
2013-02-08 01:42:00,15.0,15.0,-100.00,NE,40,2.0,6.0,98,-99.99,,,-99.99,,2013-02-08 07:42:00,
2013-02-08 01:52:00,15.0,15.0,-100.00,NE,40,2.0,6.0,98,-99.99,,,-99.99,,2013-02-08 07:52:00,
2013-02-08 02:01:00,15.0,15.0,-100.00,NE,40,2.0,6.0,98,-99.99,,,-99.99,,2013-02-08 08:01:00,
2013-02-08 02:11:00,15.0,15.0,-100.00,NE,40,2.0,6.0,98,-99.99,,,-99.99,,2013-02-08 08:11:00,
2013-02-08 02:32:00,11.0,10.0,-100.00,NE,45,0.0,1.0,98,-99.99,,,-99.99,,2013-02-08 08:32:00,
2013-02-08 02:42:00,11.0,10.0,-100.00,NE,45,0.0,1.0,98,-99.99,,,-99.99,,2013-02-08 08:42:00,
2013-02-08 02:52:00,11.0,10.0,-100.00,NE,45,0.0,1.0,98,-99.99,,,-99.99,,2013-02-08 08:52:00,
2013-02-08 03:03:00,11.0,10.0,-100.00,NE,45,0.0,1.0,98,-99.99,,,-99.99,,2013-02-08 09:03:00,
2013-02-08 03:11:00,11.0,10.0,-100.00,NE,45,0.0,1.0,98,-99.99,,,-99.99,,2013-02-08 09:11:00,
2013-02-08 03:32:00,6.0,5.0,-100.00,NNE,30,0.0,0.0,99,-99.99,,,-99.99,,2013-02-08 09:32:00,
2013-02-08 04:32:00,1.0,0.0,-100.00,NE,40,0.0,0.0,98,-99.99,,,-99.99,,2013-02-08 10:32:00,
2013-02-08 05:11:00,1.0,0.0,-100.00,NE,40,0.0,0.0,98,-99.99,,,-99.99,,2013-02-08 11:11:00,
2013-02-08 05:32:00,0.0,-1.0,-100.00,SW,220,0.0,0.0,98,-99.99,,,-99.99,,2013-02-08 11:32:00,
2013-02-08 05:42:00,0.0,-1.0,-100.00,SW,220,0.0,0.0,98,-99.99,,,-99.99,,2013-02-08 11:42:00,
2013-02-08 05:52:00,0.0,-1.0,-100.00,SW,220,0.0,0.0,98,-99.99,,,-99.99,,2013-02-08 11:52:00,
2013-02-08 06:33:00,-1.0,-1.0,-100.00,SW,215,0.0,0.0,98,-99.99,,,-99.99,,2013-02-08 12:33:00,
2013-02-08 06:42:00,-1.0,-1.0,-100.00,SW,215,0.0,0.0,98,-99.99,,,-99.99,,2013-02-08 12:42:00,
2013-02-08 06:52:00,-1.0,-1.0,-100.00,SW,215,0.0,0.0,98,-99.99,,,-99.99,,2013-02-08 12:52:00,
2013-02-08 07:01:00,-1.0,-1.0,-100.00,SW,215,0.0,0.0,98,-99.99,,,-99.99,,2013-02-08 13:01:00,
2013-02-08 07:11:00,-1.0,-1.0,-100.00,SW,215,0.0,0.0,98,-99.99,,,-99.99,,2013-02-08 13:11:00,
2013-02-08 07:32:00,-3.0,-4.0,-100.00,SSW,210,0.0,0.0,97,-99.99,,,-99.99,,2013-02-08 13:32:00,
2013-02-08 08:32:00,-3.0,-4.0,-100.00,SSE,150,0.0,0.0,96,-99.99,,,-99.99,,2013-02-08 14:32:00,
2013-02-08 09:32:00,5.0,4.0,-100.00,ENE,75,0.0,4.0,97,-99.99,,,-99.99,,2013-02-08 15:32:00,
2013-02-08 09:42:00,5.0,4.0,-100.00,ENE,75,0.0,4.0,97,-99.99,,,-99.99,,2013-02-08 15:42:00,
2013-02-08 09:52:00,5.0,4.0,-100.00,ENE,75,0.0,4.0,97,-99.99,,,-99.99,,2013-02-08 15:52:00,
2013-02-08 10:01:00,5.0,4.0,-100.00,ENE,75,0.0,4.0,97,-99.99,,,-99.99,,2013-02-08 16:01:00,
2013-02-08 10:11:00,5.0,4.0,-100.00,ENE,75,0.0,4.0,97,-99.99,,,-99.99,,2013-02-08 16:11:00,
2013-02-08 10:32:00,18.0,17.0,-100.00,NE,50,4.0,6.0,98,-99.99,,,-99.99,,2013-02-08 16:32:00,
2013-02-08 10:42:00,18.0,17.0,-100.00,NE,50,4.0,6.0,98,-99.99,,,-99.99,,2013-02-08 16:42:00,
2013-02-08 10:52:00,18.0,17.0,-100.00,NE,50,4.0,6.0,98,-99.99,,,-99.99,,2013-02-08 16:52:00,
2013-02-08 11:03:00,18.0,17.0,-100.00,NE,50,4.0,6.0,98,-99.99,,,-99.99,,2013-02-08 17:03:00,
2013-02-08 11:11:00,21.0,17.0,-100.00,NE,55,0.0,10.0,86,-99.99,,,-99.99,,2013-02-08 17:11:00,
2013-02-08 11:12:00,18.0,17.0,-100.00,NE,50,4.0,6.0,98,-99.99,,,-99.99,,2013-02-08 17:12:00,
2013-02-08 11:33:00,21.0,17.0,-100.00,NE,55,0.0,10.0,86,-99.99,,,-99.99,,2013-02-08 17:33:00,
2013-02-08 11:42:00,21.0,17.0,-100.00,NE,55,0.0,10.0,86,-99.99,,,-99.99,,2013-02-08 17:42:00,
2013-02-08 11:53:00,21.0,17.0,-100.00,NE,55,0.0,10.0,86,-99.99,,,-99.99,,2013-02-08 17:53:00,
2013-02-08 12:02:00,21.0,17.0,-100.00,NE,55,0.0,10.0,86,-99.99,,,-99.99,,2013-02-08 18:02:00,
2013-02-08 12:36:00,25.0,17.0,-100.00,ENE,75,4.0,8.0,70,-99.99,,,-99.99,,2013-02-08 18:36:00,
2013-02-08 12:44:00,25.0,17.0,-100.00,ENE,75,4.0,8.0,70,-99.99,,,-99.99,,2013-02-08 18:44:00,
2013-02-08 12:52:00,25.0,17.0,-100.00,ENE,75,4.0,8.0,70,-99.99,,,-99.99,,2013-02-08 18:52:00,
2013-02-08 13:02:00,25.0,17.0,-100.00,ENE,75,4.0,8.0,70,-99.99,,,-99.99,,2013-02-08 19:02:00,
2013-02-08 13:10:00,28.0,16.0,-100.00,ENE,70,2.0,5.0,61,-99.99,,,-99.99,,2013-02-08 19:10:00,
2013-02-08 13:11:00,25.0,17.0,-100.00,ENE,75,4.0,8.0,70,-99.99,,,-99.99,,2013-02-08 19:11:00,
2013-02-08 13:33:00,28.0,16.0,-100.00,ENE,70,2.0,5.0,61,-99.99,,,-99.99,,2013-02-08 19:33:00,
2013-02-08 13:42:00,28.0,16.0,-100.00,ENE,70,2.0,5.0,61,-99.99,,,-99.99,,2013-02-08 19:42:00,
2013-02-08 13:52:00,28.0,16.0,-100.00,ENE,70,2.0,5.0,61,-99.99,,,-99.99,,2013-02-08 19:52:00,
2013-02-08 14:02:00,28.0,16.0,-100.00,ENE,70,2.0,5.0,61,-99.99,,,-99.99,,2013-02-08 20:02:00,
2013-02-08 14:11:00,29.0,15.0,-100.00,East,85,1.0,4.0,56,-99.99,,,-99.99,,2013-02-08 20:11:00,
2013-02-08 14:32:00,29.0,15.0,-100.00,East,85,1.0,4.0,56,-99.99,,,-99.99,,2013-02-08 20:32:00,
2013-02-08 14:42:00,29.0,15.0,-100.00,East,85,1.0,4.0,56,-99.99,,,-99.99,,2013-02-08 20:42:00,
2013-02-08 14:52:00,29.0,15.0,-100.00,East,85,1.0,4.0,56,-99.99,,,-99.99,,2013-02-08 20:52:00,
2013-02-08 15:02:00,29.0,15.0,-100.00,East,85,1.0,4.0,56,-99.99,,,-99.99,,2013-02-08 21:02:00,
2013-02-08 15:10:00,29.0,15.0,-100.00,ESE,115,0.0,4.0,55,-99.99,,,-99.99,,2013-02-08 21:10:00,
2013-02-08 15:33:00,29.0,15.0,-100.00,ESE,115,0.0,4.0,55,-99.99,,,-99.99,,2013-02-08 21:33:00,
2013-02-08 15:42:00,29.0,15.0,-100.00,ESE,115,0.0,4.0,55,-99.99,,,-99.99,,2013-02-08 21:42:00,
2013-02-08 15:52:00,29.0,15.0,-100.00,ESE,115,0.0,4.0,55,-99.99,,,-99.99,,2013-02-08 21:52:00,
2013-02-08 16:02:00,29.0,15.0,-100.00,ESE,115,0.0,4.0,55,-99.99,,,-99.99,,2013-02-08 22:02:00,
2013-02-08 16:11:00,28.0,13.0,-100.00,ENE,70,1.0,2.0,55,-99.99,,,-99.99,,2013-02-08 22:11:00,
2013-02-08 16:32:00,28.0,13.0,-100.00,ENE,70,1.0,2.0,55,-99.99,,,-99.99,,2013-02-08 22:32:00,
2013-02-08 16:42:00,28.0,13.0,-100.00,ENE,70,1.0,2.0,55,-99.99,,,-99.99,,2013-02-08 22:42:00,
2013-02-08 16:52:00,28.0,13.0,-100.00,ENE,70,1.0,2.0,55,-99.99,,,-99.99,,2013-02-08 22:52:00,
2013-02-08 17:01:00,28.0,13.0,-100.00,ENE,70,1.0,2.0,55,-99.99,,,-99.99,,2013-02-08 23:01:00,
2013-02-08 17:11:00,20.0,12.0,-100.00,ENE,65,0.0,0.0,71,-99.99,,,-99.99,,2013-02-08 23:11:00,
2013-02-08 17:32:00,20.0,12.0,-100.00,ENE,65,0.0,0.0,71,-99.99,,,-99.99,,2013-02-08 23:32:00,
2013-02-08 17:42:00,20.0,12.0,-100.00,ENE,65,0.0,0.0,71,-99.99,,,-99.99,,2013-02-08 23:42:00,
2013-02-08 17:52:00,20.0,12.0,-100.00,ENE,65,0.0,0.0,71,-99.99,,,-99.99,,2013-02-08 23:52:00,
2013-02-08 18:02:00,20.0,12.0,-100.00,ENE,65,0.0,0.0,71,-99.99,,,-99.99,,2013-02-09 00:02:00,
2013-02-08 18:11:00,13.0,9.0,-100.00,ENE,75,0.0,0.0,82,-99.99,,,-99.99,,2013-02-09 00:11:00,
2013-02-08 18:32:00,13.0,9.0,-100.00,ENE,75,0.0,0.0,82,-99.99,,,-99.99,,2013-02-09 00:32:00,
2013-02-08 18:42:00,13.0,9.0,-100.00,ENE,75,0.0,0.0,82,-99.99,,,-99.99,,2013-02-09 00:42:00,
2013-02-08 18:52:00,13.0,9.0,-100.00,ENE,75,0.0,0.0,82,-99.99,,,-99.99,,2013-02-09 00:52:00,
2013-02-08 19:01:00,13.0,9.0,-100.00,ENE,75,0.0,0.0,82,-99.99,,,-99.99,,2013-02-09 01:01:00,
2013-02-08 19:11:00,8.0,5.0,-100.00,ENE,75,0.0,0.0,89,-99.99,,,-99.99,,2013-02-09 01:11:00,
2013-02-08 19:32:00,8.0,5.0,-100.00,ENE,75,0.0,0.0,89,-99.99,,,-99.99,,2013-02-09 01:32:00,
2013-02-08 19:42:00,8.0,5.0,-100.00,ENE,75,0.0,0.0,89,-99.99,,,-99.99,,2013-02-09 01:42:00,
2013-02-08 19:52:00,8.0,5.0,-100.00,ENE,75,0.0,0.0,89,-99.99,,,-99.99,,2013-02-09 01:52:00,
2013-02-08 20:01:00,8.0,5.0,-100.00,ENE,75,0.0,0.0,89,-99.99,,,-99.99,,2013-02-09 02:01:00,
2013-02-08 20:11:00,6.0,4.0,-100.00,ENE,65,0.0,0.0,92,-99.99,,,-99.99,,2013-02-09 02:11:00,
2013-02-08 20:32:00,6.0,4.0,-100.00,ENE,65,0.0,0.0,92,-99.99,,,-99.99,,2013-02-09 02:32:00,
2013-02-08 20:42:00,6.0,4.0,-100.00,ENE,65,0.0,0.0,92,-99.99,,,-99.99,,2013-02-09 02:42:00,
2013-02-08 20:53:00,6.0,4.0,-100.00,ENE,65,0.0,0.0,92,-99.99,,,-99.99,,2013-02-09 02:53:00,
2013-02-08 21:02:00,6.0,4.0,-100.00,ENE,65,0.0,0.0,92,-99.99,,,-99.99,,2013-02-09 03:02:00,
2013-02-08 21:32:00,6.0,5.0,-100.00,East,95,0.0,0.0,93,-99.99,,,-99.99,,2013-02-09 03:32:00,
2013-02-08 21:42:00,6.0,5.0,-100.00,East,95,0.0,0.0,93,-99.99,,,-99.99,,2013-02-09 03:42:00,
2013-02-08 21:53:00,6.0,5.0,-100.00,East,95,0.0,0.0,93,-99.99,,,-99.99,,2013-02-09 03:53:00,
2013-02-08 22:02:00,6.0,5.0,-100.00,East,95,0.0,0.0,93,-99.99,,,-99.99,,2013-02-09 04:02:00,
2013-02-08 22:10:00,3.0,2.0,-100.00,South,185,0.0,0.0,94,-99.99,,,-99.99,,2013-02-09 04:10:00,
2013-02-08 22:11:00,6.0,5.0,-100.00,East,95,0.0,0.0,93,-99.99,,,-99.99,,2013-02-09 04:11:00,
2013-02-08 22:32:00,3.0,2.0,-100.00,South,185,0.0,0.0,94,-99.99,,,-99.99,,2013-02-09 04:32:00,
2013-02-08 22:42:00,3.0,2.0,-100.00,South,185,0.0,0.0,94,-99.99,,,-99.99,,2013-02-09 04:42:00,
2013-02-08 22:52:00,3.0,2.0,-100.00,South,185,0.0,0.0,94,-99.99,,,-99.99,,2013-02-09 04:52:00,
2013-02-08 23:02:00,3.0,2.0,-100.00,South,185,0.0,0.0,94,-99.99,,,-99.99,,2013-02-09 05:02:00,
2013-02-08 23:11:00,0.0,-1.0,-100.00,NE,45,0.0,0.0,95,-99.99,,,-99.99,,2013-02-09 05:11:00,
2013-02-08 23:32:00,0.0,-1.0,-100.00,NE,45,0.0,0.0,95,-99.99,,,-99.99,,2013-02-09 05:32:00,